一网星座-0318星 (ONEWEB-0318 )

导读

ONEWEB-0318是一颗由英国发射的卫星,于2021年8月21日发射升空。它隶属于OneWeb卫星星座系统,该星座旨在构建全球低轨卫星互联网,为全球不同地区用户提供高速宽带通信服务。该卫星运行在近地轨道,承担着网络信号传输、覆盖扩展等职能,助力OneWeb实现全球无缝网络覆盖的建设目标。

Basic Information
目录编号:
49104
目录名称:
ONEWEB-0318
国际标识:
2021-075AF
轨道中心:
EARTH
卫星名称:
一网星座-0318星
卫星全名:
一网星座-0318星 (ONEWEB-0318 )
卫星状态:
在轨 (已飞行1801 天)
发射日期:
2021-08-21 UTC
国别 :
英国 (GB)
星等 :
--
Orbit Information
数据来源 国际轨道数据 AOE轨道数据
星历时间 2026-07-27T04:07:56+0800
1天前
查看轨道信息
2026-07-23T06:00:00+0800
5天前
查看轨道信息
半长轴 7567.878km 7567.885km
偏心率 0.0001739 0.0001668
轨道倾角 87.920° 87.918°
近地点辐角 96.827° 84.847°
升交点赤经 327.575° 328.354°
平近点角 263.306° 26.292°
近地点 1188.424km 1188.485km
远地点 1191.058km 1191.011km
周期 109.200分钟 109.200分钟
每日圈数 13.186867 13.186848
Detailed Information
平衡模式:
三轴稳定
覆盖范围:
全球
运营商:
一网卫星公司
运营商所在国:
英国
制造商(研发单位):
一网卫星公司
制造商所在国:
英国
使用方式:
暂无
Satellite Introduction
OneWeb卫星网络由648颗重约125公斤的微型卫星组成,运行在1200公里的轨道上。 每颗卫星都能够提供至少每秒8千兆位的吞吐量,以使用其高吞吐量的Ku频段有效载荷为家庭和移动平台提供互联网接入。该卫星仍在工作。
2D Orbit Map
3D Orbit Map
Orbit Altitude Analysis Chart
Orbit Inclination Analysis Chart
Orbit Comprehensive Analysis Chart
View Comprehensive Chart